CST,Max TemperatureF,Mean TemperatureF,Min TemperatureF,Max Dew PointF,MeanDew PointF,Min DewpointF,Max Humidity, Mean Humidity, Min Humidity, Max Sea Level PressureIn, Mean Sea Level PressureIn, Min Sea Level PressureIn, Max VisibilityMiles, Mean VisibilityMiles, Min VisibilityMiles, Max Wind SpeedMPH, Mean Wind SpeedMPH, Max Gust SpeedMPH,PrecipitationIn, CloudCover, Events, WindDirDegrees
2013-1-1,35,28,21,34,27,17,100,91,81,30.27,30.15,30.05,10,5,0,12,7,16,0.01,7,Fog-Snow,5
2013-1-2,35,25,15,18,15,11,88,65,41,30.29,30.26,30.22,10,8,5,7,3,25,0.00,0,,252
2013-1-3,43,31,19,26,20,16,91,67,43,30.44,30.37,30.27,10,9,4,8,4,,0.00,0,,304
2013-1-4,43,33,23,23,19,17,88,62,36,30.49,30.41,30.37,10,10,6,14,4,18,0.00,1,,254
2013-1-5,43,35,26,29,25,19,75,60,45,30.35,30.27,30.20,10,10,10,13,5,,T,6,,230
2013-1-6,44,33,22,29,22,16,85,62,39,30.40,30.30,30.19,10,10,9,16,7,24,0.00,0,,312
2013-1-7,44,32,19,26,20,14,81,66,42,30.43,30.32,30.19,10,10,7,12,4,,0.00,0,,154
2013-1-8,53,38,23,41,29,21,83,61,39,30.24,30.18,30.12,10,9,5,0,0,0,0.04,4,Rain,175
2013-1-9,55,48,40,44,39,32,96,72,47,30.40,30.33,30.25,10,7,2,18,7,23,0.01,3,,46
2013-1-10,59,50,42,57,47,35,100,91,66,30.33,30.03,29.85,10,5,0,16,11,25,0.20,8,Fog-Rain,116
2013-1-11,61,53,44,47,45,42,93,74,55,29.93,29.88,29.83,10,10,10,18,10,24,0.00,1,,190
2013-1-12,57,45,32,52,41,28,100,90,80,29.93,29.85,29.77,10,6,0,24,8,33,1.65,6,Fog-Rain-Thunderstorm,20
2013-1-13,32,25,18,29,22,12,92,81,69,30.37,30.11,29.87,10,10,7,20,11,25,T,6,,338
2013-1-14,28,21,14,13,11,10,80,65,50,30.51,30.41,30.37,10,10,9,14,7,16,0.00,2,,21
2013-1-15,30,23,16,17,13,11,88,69,50,30.37,30.26,30.15,10,10,10,13,7,17,0.00,4,,20
2013-1-16,43,29,15,20,16,12,88,59,29,30.20,30.16,30.09,10,10,6,12,5,17,0.00,1,,277
2013-1-17,43,34,24,30,24,18,76,61,45,30.51,30.36,30.17,10,10,10,16,7,22,0.00,2,,332
2013-1-18,51,36,21,26,23,17,92,62,32,30.54,30.41,30.24,10,10,10,15,6,21,0.00,0,,195
2013-1-19,64,48,32,33,28,23,64,47,30,30.23,30.15,30.05,10,10,10,18,8,25,0.00,0,,228
2013-1-20,52,40,28,32,21,11,78,51,24,30.30,30.23,30.18,10,10,10,13,5,17,0.00,0,,18
2013-1-21,37,28,19,14,11,9,67,53,38,30.39,30.34,30.27,10,10,10,17,8,23,0.00,1,,339
2013-1-22,29,23,17,12,9,4,74,57,39,30.44,30.37,30.32,10,10,10,8,3,15,0.00,3,,113
2013-1-23,54,35,16,34,23,11,80,63,46,30.33,30.25,30.16,10,9,2,13,4,22,0.00,0,,301
2013-1-24,36,30,23,20,11,6,65,51,36,30.48,30.36,30.23,10,10,10,16,12,20,0.00,6,,84
2013-1-25,49,38,27,29,22,16,75,59,42,30.26,30.17,30.10,10,10,8,13,5,17,0.00,5,,289
2013-1-26,54,41,27,28,23,20,69,48,26,30.34,30.28,30.24,10,10,10,8,3,,0.00,2,,132
2013-1-27,54,46,37,52,41,26,100,80,59,30.24,30.10,30.01,10,5,1,15,8,20,0.08,8,Rain,159
2013-1-28,72,63,54,59,56,53,93,75,57,30.03,29.98,29.91,10,9,5,20,11,28,0.00,7,,184
2013-1-29,64,57,50,61,56,49,96,87,78,29.92,29.63,29.44,10,6,1,26,13,37,1.27,8,Rain-Thunderstorm,188
2013-1-30,51,39,27,50,33,18,96,80,63,30.01,29.63,29.44,10,10,5,25,14,36,0.11,7,Rain,264
2013-1-31,45,30,15,26,19,5,85,65,45,30.40,30.15,29.98,10,7,0,22,11,28,T,4,Fog-Snow,293